^^
Datos históricos de la estación: Murcia-Puente Tocinos
Diario Informe para Enero 10, 2019 Unidades:  Métrico    Inglés   Ambas
Diario Semanal Mensual Anual Configurable
  Máximo: Mínimo: Media:
Temperatura: 14.1 °C 5.5 °C 10.2 °C
Punto de rocio: 1.4 °C -3.2 °C -1.1 °C
Humedad: 69% 32% 46%
Velocidad viento: 19.3km/h 0.0km/h 7.1km/h
Racha viento: 29.6km/h - -
Viento- - SW
Presión: 1020.1 hPa 1013.5 hPa -
Precipitación: 0.0 mm    
Historical Graphs
 
 
Tabla de datos para Enero 10, 2019
Hora Temperatura Punto de rocio Presión Viento Velocidad viento Racha viento Humedad Intensidad lluvia(por hora) Nubes
00:00 14.1 °C -2.4 °C 1013.6 hPa WNW 14.5 km/h 25.7 km/h 32% 0.0 mm CLR
00:05 13.9 °C -2.6 °C 1013.5 hPa WNW 15.6 km/h 22.2 km/h 32% 0.0 mm CLR
00:10 13.8 °C -2.6 °C 1013.5 hPa WNW 17.2 km/h 24.1 km/h 32% 0.0 mm CLR
00:15 13.7 °C -2.7 °C 1013.5 hPa WNW 17.2 km/h 20.9 km/h 32% 0.0 mm CLR
00:20 13.6 °C -2.8 °C 1013.7 hPa WNW 13.7 km/h 18.5 km/h 32% 0.0 mm CLR
00:25 13.5 °C -2.9 °C 1013.7 hPa WNW 12.9 km/h 22.5 km/h 32% 0.0 mm CLR
00:30 13.4 °C -3.0 °C 1013.7 hPa WNW 12.9 km/h 20.9 km/h 32% 0.0 mm CLR
00:35 13.3 °C -3.1 °C 1013.7 hPa WNW 13.7 km/h 20.4 km/h 32% 0.0 mm CLR
00:40 13.2 °C -3.2 °C 1013.7 hPa WNW 10.3 km/h 14.8 km/h 32% 0.0 mm CLR
00:45 13.0 °C -2.9 °C 1013.7 hPa WNW 10.3 km/h 20.4 km/h 33% 0.0 mm CLR
00:50 12.9 °C -3.0 °C 1013.8 hPa West 11.1 km/h 13.0 km/h 33% 0.0 mm CLR
00:55 12.8 °C -3.1 °C 1013.8 hPa WNW 11.1 km/h 13.0 km/h 33% 0.0 mm CLR
01:00 12.7 °C -3.2 °C 1013.8 hPa WNW 9.7 km/h 19.3 km/h 33% 0.0 mm CLR
01:05 12.6 °C -2.9 °C 1014.0 hPa WNW 10.0 km/h 13.0 km/h 34% 0.0 mm CLR
01:10 12.6 °C -2.9 °C 1014.0 hPa West 9.5 km/h 20.4 km/h 34% 0.0 mm CLR
01:15 12.6 °C -2.9 °C 1014.0 hPa WNW 9.5 km/h 18.5 km/h 34% 0.0 mm CLR
01:20 12.7 °C -2.8 °C 1014.0 hPa WNW 11.9 km/h 27.8 km/h 34% 0.0 mm CLR
01:25 12.7 °C -2.8 °C 1014.0 hPa NW 11.9 km/h 27.8 km/h 34% 0.0 mm CLR
01:30 12.7 °C -2.8 °C 1014.0 hPa NNW 15.6 km/h 20.4 km/h 34% 0.0 mm CLR
01:35 12.7 °C -2.4 °C 1013.9 hPa WNW 15.6 km/h 24.1 km/h 35% 0.0 mm CLR
01:40 12.7 °C -2.4 °C 1013.9 hPa West 15.6 km/h 23.7 km/h 35% 0.0 mm CLR
01:45 12.6 °C -2.5 °C 1013.9 hPa WNW 15.6 km/h 29.6 km/h 35% 0.0 mm CLR
01:50 12.5 °C -2.2 °C 1013.9 hPa WNW 19.3 km/h 25.7 km/h 36% 0.0 mm CLR
01:55 12.3 °C -2.4 °C 1013.9 hPa WNW 19.0 km/h 17.2 km/h 36% 0.0 mm CLR
02:00 12.3 °C -2.4 °C 1013.9 hPa WNW 14.5 km/h 27.4 km/h 36% 0.0 mm CLR
02:05 12.2 °C -2.4 °C 1014.1 hPa WNW 15.6 km/h 18.5 km/h 36% 0.0 mm CLR
02:10 12.1 °C -2.2 °C 1014.1 hPa WNW 13.0 km/h 13.0 km/h 37% 0.0 mm CLR
02:15 11.9 °C -2.3 °C 1014.1 hPa WNW 13.0 km/h 18.5 km/h 37% 0.0 mm CLR
02:20 11.8 °C -2.4 °C 1014.1 hPa WSW 11.9 km/h 18.5 km/h 37% 0.0 mm CLR
02:25 11.8 °C -2.1 °C 1014.1 hPa NW 11.9 km/h 7.6 km/h 38% 0.0 mm CLR
02:30 11.7 °C -2.2 °C 1014.1 hPa WNW 6.4 km/h 5.8 km/h 38% 0.0 mm CLR
02:35 11.5 °C -2.3 °C 1014.2 hPa NNW 6.4 km/h 11.1 km/h 38% 0.0 mm CLR
02:40 11.4 °C -2.4 °C 1014.2 hPa WNW 5.0 km/h 14.8 km/h 38% 0.0 mm CLR
02:45 11.4 °C -2.4 °C 1014.2 hPa West 5.0 km/h 14.8 km/h 38% 0.0 mm CLR
02:50 11.4 °C -2.4 °C 1014.2 hPa NW 8.7 km/h 14.8 km/h 38% 0.0 mm CLR
02:55 11.3 °C -2.5 °C 1014.2 hPa NNW 8.7 km/h 13.0 km/h 38% 0.0 mm CLR
03:00 11.3 °C -2.5 °C 1014.2 hPa WNW 9.7 km/h 20.9 km/h 38% 0.0 mm CLR
03:05 11.2 °C -2.3 °C 1014.4 hPa WNW 9.5 km/h 11.1 km/h 39% 0.0 mm CLR
03:10 11.1 °C -2.3 °C 1014.4 hPa WNW 8.4 km/h 9.3 km/h 39% 0.0 mm CLR
03:15 11.0 °C -2.4 °C 1014.4 hPa NW 8.4 km/h 7.4 km/h 39% 0.0 mm CLR
03:20 10.9 °C -2.6 °C 1014.5 hPa West 6.4 km/h 9.3 km/h 39% 0.0 mm CLR
03:25 10.9 °C -2.6 °C 1014.5 hPa West 6.4 km/h 3.7 km/h 39% 0.0 mm CLR
03:30 10.9 °C -2.6 °C 1014.5 hPa NW 3.2 km/h 11.9 km/h 39% 0.0 mm CLR
03:35 11.0 °C -2.4 °C 1014.6 hPa WNW 3.2 km/h 7.4 km/h 39% 0.0 mm CLR
03:40 11.0 °C -2.4 °C 1014.6 hPa WNW 8.0 km/h 19.3 km/h 39% 0.0 mm CLR
03:45 11.0 °C -2.4 °C 1014.6 hPa WNW 7.6 km/h 13.0 km/h 39% 0.0 mm CLR
03:50 10.9 °C -2.6 °C 1014.6 hPa WNW 9.5 km/h 10.0 km/h 39% 0.0 mm CLR
03:55 10.9 °C -2.6 °C 1014.6 hPa West 9.5 km/h 9.3 km/h 39% 0.0 mm CLR
04:00 10.8 °C -2.6 °C 1014.6 hPa WSW 8.0 km/h 14.5 km/h 39% 0.0 mm CLR
04:05 10.8 °C -2.6 °C 1014.7 hPa WNW 6.9 km/h 13.0 km/h 39% 0.0 mm CLR
04:10 10.8 °C -2.6 °C 1014.7 hPa WSW 7.6 km/h 11.1 km/h 39% 0.0 mm CLR
04:15 10.9 °C -2.2 °C 1014.7 hPa SW 7.6 km/h 7.4 km/h 40% 0.0 mm CLR
04:20 10.8 °C -2.3 °C 1014.8 hPa WSW 8.0 km/h 9.7 km/h 40% 0.0 mm CLR
04:25 10.7 °C -2.4 °C 1014.8 hPa WSW 6.4 km/h 8.4 km/h 40% 0.0 mm CLR
04:30 10.6 °C -2.1 °C 1014.8 hPa WNW 6.4 km/h 9.5 km/h 41% 0.0 mm CLR
04:35 10.5 °C -2.2 °C 1014.8 hPa SSW 6.4 km/h 9.3 km/h 41% 0.0 mm CLR
04:40 10.4 °C -2.0 °C 1014.8 hPa SSW 7.6 km/h 10.3 km/h 42% 0.0 mm CLR
04:45 10.3 °C -2.1 °C 1014.8 hPa WSW 7.6 km/h 16.7 km/h 42% 0.0 mm CLR
04:50 10.2 °C -2.2 °C 1014.8 hPa WSW 9.5 km/h 14.8 km/h 42% 0.0 mm CLR
04:55 10.2 °C -1.8 °C 1014.8 hPa WSW 9.5 km/h 12.2 km/h 43% 0.0 mm CLR
05:00 10.1 °C -1.9 °C 1014.8 hPa SW 9.7 km/h 16.1 km/h 43% 0.0 mm CLR
05:05 9.9 °C -2.1 °C 1014.7 hPa WSW 8.7 km/h 11.1 km/h 43% 0.0 mm CLR
05:10 9.9 °C -2.1 °C 1014.7 hPa WSW 7.6 km/h 9.3 km/h 43% 0.0 mm CLR
05:15 9.8 °C -1.9 °C 1014.7 hPa WSW 7.6 km/h 11.1 km/h 44% 0.0 mm CLR
05:20 9.7 °C -2.0 °C 1014.9 hPa WSW 8.0 km/h 12.9 km/h 44% 0.0 mm CLR
05:25 9.6 °C -2.1 °C 1014.9 hPa WSW 6.9 km/h 20.4 km/h 44% 0.0 mm CLR
05:30 9.6 °C -2.1 °C 1014.9 hPa South 8.4 km/h 7.4 km/h 44% 0.0 mm CLR
05:35 9.6 °C -2.1 °C 1014.9 hPa WSW 8.4 km/h 7.6 km/h 44% 0.0 mm CLR
05:40 9.6 °C -2.1 °C 1014.9 hPa WSW 6.4 km/h 7.4 km/h 44% 0.0 mm CLR
05:45 9.6 °C -2.1 °C 1014.9 hPa WSW 6.4 km/h 5.6 km/h 44% 0.0 mm CLR
05:50 9.6 °C -2.1 °C 1015.1 hPa WSW 5.0 km/h 13.0 km/h 44% 0.0 mm CLR
05:55 9.6 °C -2.1 °C 1015.1 hPa West 5.0 km/h 11.1 km/h 44% 0.0 mm CLR
06:00 9.5 °C -2.2 °C 1015.1 hPa WSW 8.0 km/h 11.3 km/h 44% 0.0 mm CLR
06:05 9.6 °C -2.1 °C 1015.0 hPa WSW 6.4 km/h 18.5 km/h 44% 0.0 mm CLR
06:10 9.6 °C -2.1 °C 1015.0 hPa SSW 7.6 km/h 11.1 km/h 44% 0.0 mm CLR
06:15 9.5 °C -2.2 °C 1015.0 hPa WSW 7.6 km/h 11.1 km/h 44% 0.0 mm CLR
06:20 9.5 °C -2.2 °C 1014.9 hPa SSW 6.9 km/h 13.0 km/h 44% 0.0 mm CLR
06:25 9.5 °C -2.2 °C 1014.9 hPa WSW 6.9 km/h 9.3 km/h 44% 0.0 mm CLR
06:30 9.5 °C -2.2 °C 1014.9 hPa SW 8.4 km/h 11.1 km/h 44% 0.0 mm CLR
06:35 9.4 °C -1.9 °C 1014.8 hPa SSW 8.4 km/h 13.0 km/h 45% 0.0 mm CLR
06:40 9.3 °C -2.1 °C 1014.8 hPa SW 7.6 km/h 7.4 km/h 45% 0.0 mm CLR
06:45 9.2 °C -1.8 °C 1014.8 hPa SW 7.6 km/h 11.1 km/h 46% 0.0 mm CLR
06:50 9.2 °C -1.8 °C 1015.0 hPa SSW 6.4 km/h 9.3 km/h 46% 0.0 mm CLR
06:55 9.1 °C -1.9 °C 1015.0 hPa SSW 6.4 km/h 9.5 km/h 46% 0.0 mm CLR
07:00 8.9 °C -1.8 °C 1015.0 hPa SSW 4.8 km/h 11.3 km/h 47% 0.0 mm CLR
07:05 8.9 °C -2.1 °C 1015.2 hPa WSW 5.8 km/h 7.4 km/h 46% 0.0 mm CLR
07:10 8.9 °C -1.8 °C 1015.2 hPa WSW 4.8 km/h 9.7 km/h 47% 0.0 mm CLR
07:15 8.8 °C -1.6 °C 1015.2 hPa SW 5.8 km/h 7.4 km/h 48% 0.0 mm CLR
07:20 8.7 °C -2.0 °C 1015.3 hPa SW 5.8 km/h 7.4 km/h 47% 0.0 mm CLR
07:25 8.6 °C -2.1 °C 1015.3 hPa West 5.8 km/h 9.3 km/h 47% 0.0 mm CLR
07:30 8.5 °C -1.9 °C 1015.3 hPa WNW 6.4 km/h 3.7 km/h 48% 0.0 mm CLR
07:35 8.4 °C -2.0 °C 1015.3 hPa WSW 6.4 km/h 11.1 km/h 48% 0.0 mm CLR
07:40 8.4 °C -2.0 °C 1015.3 hPa WSW 5.0 km/h 9.3 km/h 48% 0.0 mm CLR
07:45 8.4 °C -2.0 °C 1015.3 hPa SW 5.0 km/h 3.7 km/h 48% 0.0 mm CLR
07:50 8.4 °C -2.0 °C 1015.5 hPa SW 4.7 km/h   48% 0.0 mm FEW
07:55 8.3 °C -2.1 °C 1015.5 hPa SW 4.7 km/h 3.7 km/h 48% 0.0 mm FEW
08:00 8.3 °C -1.8 °C 1015.5 hPa Calm   4.8 km/h 49% 0.0 mm FEW
08:05 8.3 °C -1.8 °C 1016.1 hPa Calm   7.4 km/h 49% 0.0 mm FEW
08:10 8.2 °C -1.9 °C 1016.1 hPa SW 5.0 km/h 11.1 km/h 49% 0.0 mm FEW
08:15 8.1 °C -1.7 °C 1016.1 hPa WSW 5.0 km/h 9.3 km/h 50% 0.0 mm FEW
08:20 8.1 °C -1.7 °C 1016.3 hPa SW 6.9 km/h 11.9 km/h 50% 0.0 mm CLR
08:25 8.1 °C -1.7 °C 1016.3 hPa SW 6.9 km/h 11.9 km/h 50% 0.0 mm CLR
08:30 7.9 °C -1.9 °C 1016.3 hPa WSW 8.7 km/h 9.3 km/h 50% 0.0 mm CLR
08:35 7.9 °C -1.9 °C 1016.3 hPa WSW 8.7 km/h 14.8 km/h 50% 0.0 mm CLR
08:40 7.8 °C -1.7 °C 1016.3 hPa WSW 9.7 km/h 16.1 km/h 51% 0.0 mm CLR
08:45 7.8 °C -1.7 °C 1016.3 hPa SW 8.7 km/h 13.0 km/h 51% 0.0 mm CLR
08:50 7.8 °C -1.7 °C 1016.4 hPa SW 8.7 km/h 9.3 km/h 51% 0.0 mm CLR
08:55 7.8 °C -1.7 °C 1016.4 hPa South 8.7 km/h 7.4 km/h 51% 0.0 mm CLR
09:00 7.9 °C -1.6 °C 1016.4 hPa South 8.0 km/h 9.7 km/h 51% 0.0 mm CLR
09:05 7.9 °C -1.6 °C 1016.7 hPa South 6.4 km/h 9.3 km/h 51% 0.0 mm CLR
09:10 7.9 °C -1.6 °C 1016.7 hPa South 5.0 km/h 9.3 km/h 51% 0.0 mm CLR
09:15 7.9 °C -1.4 °C 1016.7 hPa SW 5.0 km/h 9.3 km/h 52% 0.0 mm CLR
09:20 7.9 °C -1.4 °C 1016.9 hPa SSE 6.4 km/h 11.9 km/h 52% 0.0 mm CLR
09:25 7.8 °C -1.4 °C 1016.9 hPa South 6.4 km/h 13.0 km/h 52% 0.0 mm CLR
09:30 7.8 °C -1.2 °C 1016.9 hPa SSE 8.7 km/h 13.0 km/h 53% 0.0 mm CLR
09:35 7.6 °C -1.1 °C 1017.3 hPa SW 8.7 km/h 11.1 km/h 54% 0.0 mm CLR
09:40 7.7 °C -1.3 °C 1017.3 hPa SW 8.7 km/h 13.7 km/h 53% 0.0 mm CLR
09:45 7.9 °C -1.4 °C 1017.3 hPa South 8.7 km/h 11.1 km/h 52% 0.0 mm CLR
09:50 8.0 °C -1.3 °C 1017.6 hPa SSE 8.7 km/h 11.1 km/h 52% 0.0 mm CLR
09:55 8.1 °C -1.4 °C 1017.6 hPa South 8.7 km/h 14.8 km/h 51% 0.0 mm CLR
10:00 8.2 °C -1.1 °C 1017.6 hPa SSW 9.7 km/h 12.9 km/h 52% 0.0 mm CLR
10:05 8.3 °C -1.3 °C 1017.6 hPa WSW 8.7 km/h 14.8 km/h 51% 0.0 mm CLR
10:10 8.4 °C -1.2 °C 1017.6 hPa SW 9.5 km/h 11.1 km/h 51% 0.0 mm CLR
10:15 8.4 °C -1.4 °C 1017.6 hPa SW 9.5 km/h 11.1 km/h 50% 0.0 mm CLR
10:20 8.6 °C -1.5 °C 1018.0 hPa SW 9.7 km/h 19.3 km/h 49% 0.0 mm CLR
10:25 8.7 °C -1.4 °C 1018.0 hPa WSW 8.7 km/h 14.8 km/h 49% 0.0 mm CLR
10:30 8.9 °C -1.3 °C 1018.0 hPa WSW 11.1 km/h 13.0 km/h 49% 0.0 mm CLR
10:35 8.9 °C -1.3 °C 1018.2 hPa South 11.1 km/h 11.1 km/h 49% 0.0 mm CLR
10:40 9.1 °C -1.1 °C 1018.2 hPa SW 8.7 km/h 11.1 km/h 49% 0.0 mm CLR
10:45 9.2 °C -1.0 °C 1018.2 hPa WSW 8.7 km/h 3.7 km/h 49% 0.0 mm CLR
10:50 9.4 °C -1.1 °C 1018.2 hPa West 5.8 km/h 11.1 km/h 48% 0.0 mm CLR
10:55 9.4 °C -1.1 °C 1018.2 hPa SW 5.8 km/h 9.3 km/h 48% 0.0 mm CLR
11:00 9.4 °C -1.3 °C 1018.2 hPa SW 4.8 km/h 9.7 km/h 47% 0.0 mm CLR
11:05 9.5 °C -1.6 °C 1018.2 hPa West 5.8 km/h 9.3 km/h 46% 0.0 mm CLR
11:10 9.5 °C -1.6 °C 1018.2 hPa WSW 6.9 km/h 13.0 km/h 46% 0.0 mm CLR
11:15 9.6 °C -1.4 °C 1018.2 hPa WSW 6.9 km/h 12.2 km/h 46% 0.0 mm CLR
11:20 9.7 °C -1.7 °C 1018.5 hPa SSW 8.4 km/h 13.0 km/h 45% 0.0 mm CLR
11:25 9.7 °C -1.7 °C 1018.5 hPa SSW 8.4 km/h 13.0 km/h 45% 0.0 mm CLR
11:30 9.8 °C -1.6 °C 1018.5 hPa SW 6.9 km/h 5.6 km/h 45% 0.0 mm CLR
11:35 9.8 °C -1.9 °C 1018.5 hPa WSW 6.9 km/h 11.1 km/h 44% 0.0 mm CLR
11:40 9.9 °C -1.5 °C 1018.5 hPa WNW 6.4 km/h 10.0 km/h 45% 0.0 mm CLR
11:45 10.1 °C -1.6 °C 1018.5 hPa WSW 6.4 km/h 16.7 km/h 44% 0.0 mm CLR
11:50 10.3 °C -1.4 °C 1018.4 hPa WNW 7.6 km/h 18.5 km/h 44% 0.0 mm CLR
11:55 10.4 °C -1.7 °C 1018.4 hPa West 7.6 km/h 19.0 km/h 43% 0.0 mm CLR
12:00 10.6 °C -1.6 °C 1018.4 hPa West 11.3 km/h 22.5 km/h 43% 0.0 mm CLR
12:05 10.5 °C -1.6 °C 1018.3 hPa WSW 11.1 km/h 14.8 km/h 43% 0.0 mm CLR
12:10 10.5 °C -1.6 °C 1018.3 hPa WSW 10.3 km/h 11.1 km/h 43% 0.0 mm CLR
12:15 10.7 °C -1.4 °C 1018.3 hPa WSW 10.3 km/h 16.4 km/h 43% 0.0 mm CLR
12:20 10.9 °C -1.5 °C 1018.0 hPa West 8.7 km/h 9.3 km/h 42% 0.0 mm CLR
12:25 11.1 °C -1.3 °C 1018.0 hPa WSW 8.7 km/h 11.1 km/h 42% 0.0 mm CLR
12:30 11.0 °C -1.8 °C 1018.0 hPa WSW 8.7 km/h 20.4 km/h 41% 0.0 mm CLR
12:35 11.0 °C -1.8 °C 1017.9 hPa West 8.7 km/h 11.1 km/h 41% 0.0 mm CLR
12:40 11.1 °C -1.7 °C 1017.9 hPa WNW 9.5 km/h 15.6 km/h 41% 0.0 mm CLR
12:45 11.2 °C -1.9 °C 1017.9 hPa West 9.5 km/h 21.7 km/h 40% 0.0 mm CLR
12:50 11.2 °C -1.9 °C 1017.4 hPa West 10.3 km/h 20.4 km/h 40% 0.0 mm CLR
12:55 11.2 °C -1.6 °C 1017.4 hPa WSW 10.3 km/h 16.7 km/h 41% 0.0 mm CLR
13:00 11.3 °C -1.8 °C 1017.4 hPa West 11.3 km/h 16.1 km/h 40% 0.0 mm CLR
13:05 11.5 °C -1.7 °C 1017.4 hPa WSW 11.9 km/h 13.0 km/h 40% 0.0 mm CLR
13:10 11.7 °C -1.4 °C 1017.4 hPa West 9.5 km/h 13.0 km/h 40% 0.0 mm CLR
13:15 11.9 °C -1.3 °C 1017.4 hPa WNW 9.5 km/h 7.4 km/h 40% 0.0 mm CLR
13:20 12.1 °C -1.4 °C 1017.1 hPa NW 7.6 km/h 11.1 km/h 39% 0.0 mm FEW
13:25 12.1 °C -1.4 °C 1017.1 hPa WSW 7.6 km/h 14.8 km/h 39% 0.0 mm FEW
13:30 12.1 °C -1.4 °C 1017.1 hPa WSW 8.7 km/h 13.0 km/h 39% 0.0 mm FEW
13:35 12.1 °C -1.1 °C 1017.0 hPa WSW 8.7 km/h 13.0 km/h 40% 0.0 mm FEW
13:40 12.3 °C -0.9 °C 1017.0 hPa West 8.4 km/h 11.1 km/h 40% 0.0 mm FEW
13:45 12.3 °C -0.9 °C 1017.0 hPa West 8.4 km/h 11.1 km/h 40% 0.0 mm FEW
13:50 12.3 °C -0.9 °C 1016.8 hPa NNW 9.5 km/h 11.1 km/h 40% 0.0 mm CLR
13:55 12.3 °C -0.9 °C 1016.8 hPa WNW 9.5 km/h 9.3 km/h 40% 0.0 mm CLR
14:00 12.5 °C -1.1 °C 1016.8 hPa WNW 8.0 km/h 11.3 km/h 39% 0.0 mm CLR
14:05 12.6 °C -0.7 °C 1016.5 hPa West 8.4 km/h 16.7 km/h 40% 0.0 mm CLR
14:10 12.7 °C -0.9 °C 1016.5 hPa SW 10.0 km/h 14.8 km/h 39% 0.0 mm CLR
14:15 12.7 °C -1.3 °C 1016.5 hPa WSW 10.0 km/h 16.7 km/h 38% 0.0 mm CLR
14:20 12.7 °C -0.9 °C 1016.3 hPa WSW 8.7 km/h 20.4 km/h 39% 0.0 mm CLR
14:25 12.9 °C -0.7 °C 1016.3 hPa WNW 8.7 km/h 7.6 km/h 39% 0.0 mm CLR
14:30 12.9 °C -0.4 °C 1016.3 hPa WNW 8.7 km/h 11.1 km/h 40% 0.0 mm CLR
14:35 12.8 °C -0.8 °C 1016.3 hPa WNW 8.7 km/h 11.1 km/h 39% 0.0 mm CLR
14:40 12.8 °C -0.8 °C 1016.3 hPa West 9.5 km/h 11.1 km/h 39% 0.0 mm CLR
14:45 12.7 °C -0.6 °C 1016.3 hPa WSW 9.5 km/h 9.3 km/h 40% 0.0 mm CLR
14:50 12.8 °C -0.5 °C 1016.2 hPa West 6.4 km/h 3.7 km/h 40% 0.0 mm CLR
14:55 12.8 °C -0.8 °C 1016.2 hPa West 6.4 km/h 11.1 km/h 39% 0.0 mm CLR
15:00 12.8 °C -0.8 °C 1016.2 hPa West 4.8 km/h 14.5 km/h 39% 0.0 mm CLR
15:04 12.8 °C -1.2 °C 1016.1 hPa NW 5.0 km/h 12.2 km/h 38% 0.0 mm CLR
15:10 12.7 °C -1.3 °C 1016.1 hPa West 9.5 km/h 7.4 km/h 38% 0.0 mm CLR
15:15 12.8 °C -0.8 °C 1016.1 hPa WSW 9.5 km/h 9.3 km/h 39% 0.0 mm CLR
15:20 13.1 °C -0.9 °C 1016.1 hPa West 4.7 km/h 14.8 km/h 38% 0.0 mm CLR
15:25 13.0 °C -1.7 °C 1016.1 hPa WNW 4.7 km/h 7.4 km/h 36% 0.0 mm CLR
15:30 12.9 °C -1.8 °C 1016.1 hPa WNW 8.4 km/h 11.1 km/h 36% 0.0 mm CLR
15:35 13.0 °C -1.4 °C 1016.2 hPa West 8.4 km/h 9.3 km/h 37% 0.0 mm CLR
15:40 13.2 °C -1.6 °C 1016.2 hPa SSW 6.4 km/h 13.0 km/h 36% 0.0 mm CLR
15:45 13.4 °C -1.4 °C 1016.2 hPa WSW 6.4 km/h 11.1 km/h 36% 0.0 mm CLR
15:50 13.3 °C -1.5 °C 1016.1 hPa SE 7.6 km/h 9.3 km/h 36% 0.0 mm CLR
15:55 13.4 °C -1.4 °C 1016.1 hPa East 7.6 km/h 3.7 km/h 36% 0.0 mm CLR
16:00 13.5 °C -1.3 °C 1016.1 hPa ENE 3.2 km/h 8.0 km/h 36% 0.0 mm CLR
16:05 13.6 °C -1.6 °C 1016.2 hPa North 4.7 km/h 5.8 km/h 35% 0.0 mm CLR
16:10 13.5 °C -1.7 °C 1016.2 hPa NNE 3.9 km/h 5.8 km/h 35% 0.0 mm CLR
16:15 13.4 °C -1.8 °C 1016.2 hPa SE 3.9 km/h 3.9 km/h 35% 0.0 mm CLR
16:20 13.6 °C -1.6 °C 1016.2 hPa ENE 3.2 km/h 4.8 km/h 35% 0.0 mm CLR
16:25 13.7 °C -1.9 °C 1016.2 hPa WSW 3.9 km/h 9.3 km/h 34% 0.0 mm CLR
16:30 13.9 °C -1.3 °C 1016.2 hPa NE 3.9 km/h 7.6 km/h 35% 0.0 mm CLR
16:35 13.6 °C -1.6 °C 1016.3 hPa NNE 3.9 km/h 11.9 km/h 35% 0.0 mm CLR
16:40 13.4 °C -1.8 °C 1016.3 hPa NE 7.6 km/h 7.4 km/h 35% 0.0 mm CLR
16:45 13.3 °C -1.8 °C 1016.3 hPa NE 7.6 km/h 8.7 km/h 35% 0.0 mm FEW
16:50 13.2 °C -1.6 °C 1016.4 hPa NE 6.4 km/h 11.1 km/h 36% 0.0 mm FEW
16:55 13.1 °C -1.7 °C 1016.4 hPa NE 6.4 km/h 13.0 km/h 36% 0.0 mm FEW
17:00 13.0 °C -1.4 °C 1016.4 hPa NE 8.0 km/h 12.9 km/h 37% 0.0 mm FEW
17:05 13.0 °C -1.0 °C 1016.5 hPa NNE 8.4 km/h 11.1 km/h 38% 0.0 mm FEW
17:10 12.9 °C -1.1 °C 1016.5 hPa NNE 6.9 km/h 8.7 km/h 38% 0.0 mm FEW
17:15 12.9 °C -1.4 °C 1016.5 hPa NNE 6.9 km/h 7.4 km/h 37% 0.0 mm FEW
17:20 12.9 °C -1.1 °C 1016.6 hPa NE 6.9 km/h 9.3 km/h 38% 0.0 mm CLR
17:25 12.8 °C -1.2 °C 1016.6 hPa ENE 6.9 km/h 11.1 km/h 38% 0.0 mm CLR
17:30 12.7 °C -0.6 °C 1016.6 hPa NE 7.6 km/h 11.1 km/h 40% 0.0 mm CLR
17:35 12.6 °C -0.3 °C 1016.7 hPa ENE 7.6 km/h 7.6 km/h 41% 0.0 mm CLR
17:40 12.4 °C -0.5 °C 1016.7 hPa NE 7.6 km/h 11.1 km/h 41% 0.0 mm CLR
17:45 12.3 °C -0.3 °C 1016.7 hPa ENE 7.6 km/h 7.4 km/h 42% 0.0 mm CLR
17:50 12.2 °C -0.3 °C 1016.8 hPa NE 6.4 km/h 12.2 km/h 42% 0.0 mm CLR
17:55 12.1 °C -0.1 °C 1016.8 hPa ENE 6.4 km/h 9.3 km/h 43% 0.0 mm CLR
18:00 12.0 °C -0.2 °C 1016.8 hPa NE 8.0 km/h 11.3 km/h 43% 0.0 mm CLR
18:05 11.7 °C 0.2 °C 1016.9 hPa NE 6.9 km/h 16.7 km/h 45% 0.0 mm CLR
18:10 11.3 °C 0.7 °C 1016.9 hPa NNE 9.5 km/h 10.0 km/h 48% 0.0 mm CLR
18:15 10.9 °C 0.9 °C 1016.9 hPa East 9.5 km/h 11.1 km/h 50% 0.0 mm CLR
18:20 10.8 °C 1.1 °C 1017.1 hPa ENE 8.4 km/h 17.2 km/h 51% 0.0 mm CLR
18:25 10.6 °C 1.2 °C 1017.1 hPa ENE 8.4 km/h 9.3 km/h 52% 0.0 mm CLR
18:30 10.5 °C 1.1 °C 1017.1 hPa NE 7.6 km/h 10.0 km/h 52% 0.0 mm CLR
18:35 10.4 °C 1.2 °C 1017.3 hPa ENE 7.6 km/h 9.3 km/h 53% 0.0 mm CLR
18:40 10.3 °C 1.1 °C 1017.3 hPa NE 6.4 km/h 9.3 km/h 53% 0.0 mm CLR
18:45 10.3 °C 1.1 °C 1017.3 hPa ENE 6.4 km/h 9.3 km/h 53% 0.0 mm CLR
18:50 10.2 °C 1.1 °C 1017.5 hPa NE 5.8 km/h 7.4 km/h 53% 0.0 mm CLR
18:55 10.1 °C 1.2 °C 1017.5 hPa NE 5.8 km/h 5.6 km/h 54% 0.0 mm CLR
19:00 10.1 °C 1.2 °C 1017.5 hPa NE 4.8 km/h 8.0 km/h 54% 0.0 mm CLR
19:05 9.9 °C 1.0 °C 1017.7 hPa NE 5.0 km/h 5.6 km/h 54% 0.0 mm CLR
19:10 9.8 °C 1.2 °C 1017.7 hPa NE 3.9 km/h 5.6 km/h 55% 0.0 mm CLR
19:15 9.7 °C 1.3 °C 1017.7 hPa NE 3.9 km/h   56% 0.0 mm CLR
19:20 9.6 °C 1.2 °C 1017.8 hPa NE 1.6 km/h   56% 0.0 mm CLR
19:25 9.4 °C 1.3 °C 1017.8 hPa NE 2.3 km/h   57% 0.0 mm CLR
19:30 9.3 °C 1.4 °C 1017.8 hPa Calm     58% 0.0 mm CLR
19:35 9.2 °C 1.3 °C 1018.0 hPa Calm     58% 0.0 mm CLR
19:40 9.1 °C 1.3 °C 1018.0 hPa Calm   7.4 km/h 58% 0.0 mm CLR
19:45 9.1 °C 1.3 °C 1018.0 hPa Calm   7.4 km/h 58% 0.0 mm CLR
19:50 9.1 °C 1.3 °C 1018.1 hPa WNW 3.2 km/h 8.0 km/h 58% 0.0 mm CLR
19:55 9.1 °C 1.3 °C 1018.1 hPa WNW 4.7 km/h 5.6 km/h 58% 0.0 mm CLR
20:00 9.1 °C 1.3 °C 1018.1 hPa WNW 3.2 km/h 8.0 km/h 58% 0.0 mm CLR
20:05 9.1 °C 1.3 °C 1018.3 hPa WNW 3.9 km/h 5.6 km/h 58% 0.0 mm CLR
20:10 9.1 °C 1.3 °C 1018.3 hPa WNW 2.9 km/h 5.6 km/h 58% 0.0 mm CLR
20:15 9.2 °C 1.1 °C 1018.3 hPa NNW 2.9 km/h 5.6 km/h 57% 0.0 mm CLR
20:20 9.2 °C 1.1 °C 1018.5 hPa WNW 3.9 km/h 7.4 km/h 57% 0.0 mm CLR
20:25 9.1 °C 1.3 °C 1018.5 hPa WNW 3.9 km/h 3.9 km/h 58% 0.0 mm CLR
20:30 9.0 °C 1.2 °C 1018.5 hPa WNW 3.2 km/h 5.6 km/h 58% 0.0 mm CLR
20:35 8.9 °C 1.1 °C 1018.5 hPa WNW 3.2 km/h   58% 0.0 mm CLR
20:40 8.9 °C 1.1 °C 1018.5 hPa Calm     58% 0.0 mm CLR
20:45 8.8 °C 1.2 °C 1018.5 hPa Calm     59% 0.0 mm CLR
20:50 8.7 °C 1.1 °C 1018.7 hPa Calm     59% 0.0 mm CLR
20:55 8.7 °C 1.1 °C 1018.7 hPa Calm     59% 0.0 mm CLR
21:00 8.6 °C 1.2 °C 1018.7 hPa Calm     60% 0.0 mm CLR
21:05 8.4 °C 1.1 °C 1018.9 hPa Calm   3.7 km/h 60% 0.0 mm CLR
21:10 8.2 °C 1.1 °C 1018.9 hPa Calm   3.7 km/h 61% 0.0 mm CLR
21:15 8.1 °C 1.0 °C 1018.9 hPa Calm   4.7 km/h 61% 0.0 mm CLR
21:20 8.0 °C 1.2 °C 1019.1 hPa WNW 2.3 km/h 5.6 km/h 62% 0.0 mm CLR
21:25 7.9 °C 1.1 °C 1019.1 hPa WNW 2.3 km/h 7.4 km/h 62% 0.0 mm CLR
21:30 7.7 °C 0.9 °C 1019.1 hPa WNW 3.9 km/h 7.4 km/h 62% 0.0 mm CLR
21:35 7.5 °C 0.9 °C 1019.2 hPa WNW 3.9 km/h 3.7 km/h 63% 0.0 mm CLR
21:40 7.3 °C 0.7 °C 1019.2 hPa WNW 4.7 km/h 5.6 km/h 63% 0.0 mm CLR
21:45 7.1 °C 0.7 °C 1019.2 hPa WNW 4.7 km/h 7.4 km/h 64% 0.0 mm CLR
21:50 7.0 °C 0.9 °C 1019.5 hPa WNW 3.2 km/h 7.4 km/h 65% 0.0 mm CLR
21:55 7.1 °C 1.2 °C 1019.5 hPa WNW 3.2 km/h 5.6 km/h 66% 0.0 mm CLR
22:00 7.1 °C 0.9 °C 1019.5 hPa WNW 3.2 km/h 6.4 km/h 65% 0.0 mm CLR
22:05 7.2 °C 1.3 °C 1019.5 hPa WNW 3.9 km/h   66% 0.0 mm CLR
22:10 7.2 °C 1.1 °C 1019.5 hPa Calm   5.6 km/h 65% 0.0 mm CLR
22:15 7.2 °C 1.1 °C 1019.5 hPa Calm     65% 0.0 mm CLR
22:20 7.0 °C 0.9 °C 1019.7 hPa SE 3.2 km/h 8.4 km/h 65% 0.0 mm CLR
22:25 6.7 °C 0.8 °C 1019.7 hPa ESE 3.2 km/h 7.4 km/h 66% 0.0 mm CLR
22:30 6.5 °C 0.8 °C 1019.7 hPa ESE 5.0 km/h 3.7 km/h 67% 0.0 mm CLR
22:35 6.3 °C 0.6 °C 1019.8 hPa ESE 5.0 km/h 5.6 km/h 67% 0.0 mm CLR
22:40 6.2 °C 0.7 °C 1019.8 hPa ESE 3.2 km/h 5.6 km/h 68% 0.0 mm CLR
22:45 6.2 °C 0.7 °C 1019.8 hPa ESE 3.2 km/h 3.7 km/h 68% 0.0 mm CLR
22:50 6.2 °C 0.7 °C 1019.8 hPa SE 3.2 km/h 8.4 km/h 68% 0.0 mm CLR
22:55 6.1 °C 0.6 °C 1019.8 hPa SE 3.2 km/h 8.7 km/h 68% 0.0 mm CLR
23:00 5.9 °C 0.4 °C 1019.8 hPa SE 4.8 km/h 9.7 km/h 68% 0.0 mm CLR
23:05 5.8 °C 0.6 °C 1020.1 hPa SSW 5.8 km/h 9.3 km/h 69% 0.0 mm CLR
23:10 5.9 °C 0.4 °C 1020.1 hPa SW 5.8 km/h 7.6 km/h 68% 0.0 mm CLR
23:15 6.1 °C 0.6 °C 1020.1 hPa SW 5.8 km/h 5.6 km/h 68% 0.0 mm CLR
23:20 6.1 °C 0.6 °C 1020.0 hPa SW 4.7 km/h 3.7 km/h 68% 0.0 mm CLR
23:25 6.1 °C 0.6 °C 1020.0 hPa SW 4.7 km/h 5.6 km/h 68% 0.0 mm CLR
23:30 6.0 °C 0.6 °C 1020.0 hPa SW 3.2 km/h 6.4 km/h 68% 0.0 mm CLR
23:35 5.9 °C 0.4 °C 1020.1 hPa SE 3.2 km/h 8.4 km/h 68% 0.0 mm CLR
23:40 5.6 °C 0.2 °C 1020.1 hPa SSE 5.0 km/h 11.1 km/h 68% 0.0 mm CLR
23:45 5.5 °C 0.1 °C 1020.1 hPa SSW 5.0 km/h 11.1 km/h 68% 0.0 mm CLR
23:50 5.6 °C 0.2 °C 1020.1 hPa SW 6.9 km/h 9.3 km/h 68% 0.0 mm CLR
23:55 5.6 °C 0.2 °C 1020.1 hPa SW 6.9 km/h 7.4 km/h 68% 0.0 mm CLR
Murcia-Puente Tocinos, España
Compliments of Weather Underground - 2.75 mb

La estación de MeteoMurcia.com, publica sus datos en los siguientes proyectos:

Weather Underground PWS IMURCIAP2 Meteoclimatic www.awekas.at

W3Counter
Web Analytics